Location: Tucson
(32.2217°N, 110.9265°W)
Time: 10:14:49
(UTC-07:00)

ISS - Visible Passes

Search period start: 22 March 2019 00:00
Search period end: 01 April 2019 00:00
Orbit: 406 x 411 km, 51.6° (Epoch: 23 March)

Date Brightness Start Highest point End Pass type
(mag) Time Alt. Az. Time Alt. Az. Time Alt. Az.
22 Mar -2.8 19:16:43 10° WSW 19:19:54 48° NW 19:23:07 10° NE visible
23 Mar -0.7 20:04:34 10° NW 20:05:46 11° NNW 20:06:57 10° N visible
24 Mar -1.1 19:12:02 10° W 19:14:28 19° NW 19:16:55 10° NNE visible
